Index of /20260503/WXO-DD/model_rdps/10km/12/031
Name Last modified Size Description
Parent Directory -
20260503T12Z_MSC_RDPS_AbsoluteVorticity_IsbL-0250_RLatLon0.09_PT031H.grib2 2026-05-03 15:02 616K
20260503T12Z_MSC_RDPS_AbsoluteVorticity_IsbL-0500_RLatLon0.09_PT031H.grib2 2026-05-03 15:02 575K
20260503T12Z_MSC_RDPS_AbsoluteVorticity_IsbL-0700_RLatLon0.09_PT031H.grib2 2026-05-03 15:02 624K
20260503T12Z_MSC_RDPS_AbsoluteVorticity_IsbL-0850_RLatLon0.09_PT031H.grib2 2026-05-03 15:02 797K
20260503T12Z_MSC_RDPS_AirTemp_AGL-120m_RLatLon0.09_PT031H.grib2 2026-05-03 15:02 396K
20260503T12Z_MSC_RDPS_AirTemp_AGL-2m_RLatLon0.09_PT031H.grib2 2026-05-03 15:02 632K
20260503T12Z_MSC_RDPS_AirTemp_AGL-40m_RLatLon0.09_PT031H.grib2 2026-05-03 15:02 405K
20260503T12Z_MSC_RDPS_AirTemp_AGL-80m_RLatLon0.09_PT031H.grib2 2026-05-03 15:02 400K
20260503T12Z_MSC_RDPS_AirTemp_IsbL-0001_RLatLon0.09_PT031H.grib2 2026-05-03 15:02 331K
20260503T12Z_MSC_RDPS_AirTemp_IsbL-0005_RLatLon0.09_PT031H.grib2 2026-05-03 15:02 293K
20260503T12Z_MSC_RDPS_AirTemp_IsbL-0010_RLatLon0.09_PT031H.grib2 2026-05-03 15:02 303K
20260503T12Z_MSC_RDPS_AirTemp_IsbL-0020_RLatLon0.09_PT031H.grib2 2026-05-03 15:02 418K
20260503T12Z_MSC_RDPS_AirTemp_IsbL-0030_RLatLon0.09_PT031H.grib2 2026-05-03 15:02 340K
20260503T12Z_MSC_RDPS_AirTemp_IsbL-0050_RLatLon0.09_PT031H.grib2 2026-05-03 15:02 321K
20260503T12Z_MSC_RDPS_AirTemp_IsbL-0100_RLatLon0.09_PT031H.grib2 2026-05-03 15:02 432K
20260503T12Z_MSC_RDPS_AirTemp_IsbL-0150_RLatLon0.09_PT031H.grib2 2026-05-03 15:02 423K
20260503T12Z_MSC_RDPS_AirTemp_IsbL-0175_RLatLon0.09_PT031H.grib2 2026-05-03 15:02 415K
20260503T12Z_MSC_RDPS_AirTemp_IsbL-0200_RLatLon0.09_PT031H.grib2 2026-05-03 15:02 418K
20260503T12Z_MSC_RDPS_AirTemp_IsbL-0225_RLatLon0.09_PT031H.grib2 2026-05-03 15:02 422K
20260503T12Z_MSC_RDPS_AirTemp_IsbL-0250_RLatLon0.09_PT031H.grib2 2026-05-03 15:02 428K
20260503T12Z_MSC_RDPS_AirTemp_IsbL-0275_RLatLon0.09_PT031H.grib2 2026-05-03 15:02 408K
20260503T12Z_MSC_RDPS_AirTemp_IsbL-0300_RLatLon0.09_PT031H.grib2 2026-05-03 15:02 413K
20260503T12Z_MSC_RDPS_AirTemp_IsbL-0350_RLatLon0.09_PT031H.grib2 2026-05-03 15:02 428K
20260503T12Z_MSC_RDPS_AirTemp_IsbL-0400_RLatLon0.09_PT031H.grib2 2026-05-03 15:02 432K
20260503T12Z_MSC_RDPS_AirTemp_IsbL-0450_RLatLon0.09_PT031H.grib2 2026-05-03 15:02 405K
20260503T12Z_MSC_RDPS_AirTemp_IsbL-0500_RLatLon0.09_PT031H.grib2 2026-05-03 15:02 452K
20260503T12Z_MSC_RDPS_AirTemp_IsbL-0550_RLatLon0.09_PT031H.grib2 2026-05-03 15:02 472K
20260503T12Z_MSC_RDPS_AirTemp_IsbL-0600_RLatLon0.09_PT031H.grib2 2026-05-03 15:02 454K
20260503T12Z_MSC_RDPS_AirTemp_IsbL-0650_RLatLon0.09_PT031H.grib2 2026-05-03 15:02 470K
20260503T12Z_MSC_RDPS_AirTemp_IsbL-0700_RLatLon0.09_PT031H.grib2 2026-05-03 15:02 495K
20260503T12Z_MSC_RDPS_AirTemp_IsbL-0750_RLatLon0.09_PT031H.grib2 2026-05-03 15:02 419K
20260503T12Z_MSC_RDPS_AirTemp_IsbL-0800_RLatLon0.09_PT031H.grib2 2026-05-03 15:02 469K
20260503T12Z_MSC_RDPS_AirTemp_IsbL-0850_RLatLon0.09_PT031H.grib2 2026-05-03 15:02 517K
20260503T12Z_MSC_RDPS_AirTemp_IsbL-0875_RLatLon0.09_PT031H.grib2 2026-05-03 15:02 532K
20260503T12Z_MSC_RDPS_AirTemp_IsbL-0900_RLatLon0.09_PT031H.grib2 2026-05-03 15:02 538K
20260503T12Z_MSC_RDPS_AirTemp_IsbL-0925_RLatLon0.09_PT031H.grib2 2026-05-03 15:02 533K
20260503T12Z_MSC_RDPS_AirTemp_IsbL-0950_RLatLon0.09_PT031H.grib2 2026-05-03 15:02 535K
20260503T12Z_MSC_RDPS_AirTemp_IsbL-0970_RLatLon0.09_PT031H.grib2 2026-05-03 15:02 528K
20260503T12Z_MSC_RDPS_AirTemp_IsbL-0985_RLatLon0.09_PT031H.grib2 2026-05-03 15:02 516K
20260503T12Z_MSC_RDPS_AirTemp_IsbL-1000_RLatLon0.09_PT031H.grib2 2026-05-03 15:02 501K
20260503T12Z_MSC_RDPS_AirTemp_IsbL-1015_RLatLon0.09_PT031H.grib2 2026-05-03 15:02 504K
20260503T12Z_MSC_RDPS_Albedo_Sfc_RLatLon0.09_PT031H.grib2 2026-05-03 15:02 157K
20260503T12Z_MSC_RDPS_CAPE_Sfc_RLatLon0.09_PT031H.grib2 2026-05-03 15:02 1.7M
20260503T12Z_MSC_RDPS_CIN_Sfc_RLatLon0.09_PT031H.grib2 2026-05-03 15:02 1.2M
20260503T12Z_MSC_RDPS_CloudWater_EAtm_RLatLon0.09_PT031H.grib2 2026-05-03 15:02 224K
20260503T12Z_MSC_RDPS_ConvectivePrecip-Accum_Sfc_RLatLon0.09_PT031H.grib2 2026-05-03 15:02 929K
20260503T12Z_MSC_RDPS_DewPointDepression_AGL-2m_RLatLon0.09_PT031H.grib2 2026-05-03 15:02 425K
20260503T12Z_MSC_RDPS_DewPointDepression_IsbL-0001_RLatLon0.09_PT031H.grib2 2026-05-03 15:02 193
20260503T12Z_MSC_RDPS_DewPointDepression_IsbL-0005_RLatLon0.09_PT031H.grib2 2026-05-03 15:02 193
20260503T12Z_MSC_RDPS_DewPointDepression_IsbL-0010_RLatLon0.09_PT031H.grib2 2026-05-03 15:02 193
20260503T12Z_MSC_RDPS_DewPointDepression_IsbL-0020_RLatLon0.09_PT031H.grib2 2026-05-03 15:02 193
20260503T12Z_MSC_RDPS_DewPointDepression_IsbL-0030_RLatLon0.09_PT031H.grib2 2026-05-03 15:02 193
20260503T12Z_MSC_RDPS_DewPointDepression_IsbL-0050_RLatLon0.09_PT031H.grib2 2026-05-03 15:02 80K
20260503T12Z_MSC_RDPS_DewPointDepression_IsbL-0100_RLatLon0.09_PT031H.grib2 2026-05-03 15:02 118K
20260503T12Z_MSC_RDPS_DewPointDepression_IsbL-0150_RLatLon0.09_PT031H.grib2 2026-05-03 15:02 146K
20260503T12Z_MSC_RDPS_DewPointDepression_IsbL-0175_RLatLon0.09_PT031H.grib2 2026-05-03 15:02 184K
20260503T12Z_MSC_RDPS_DewPointDepression_IsbL-0200_RLatLon0.09_PT031H.grib2 2026-05-03 15:02 221K
20260503T12Z_MSC_RDPS_DewPointDepression_IsbL-0225_RLatLon0.09_PT031H.grib2 2026-05-03 15:02 263K
20260503T12Z_MSC_RDPS_DewPointDepression_IsbL-0250_RLatLon0.09_PT031H.grib2 2026-05-03 15:02 302K
20260503T12Z_MSC_RDPS_DewPointDepression_IsbL-0275_RLatLon0.09_PT031H.grib2 2026-05-03 15:02 311K
20260503T12Z_MSC_RDPS_DewPointDepression_IsbL-0300_RLatLon0.09_PT031H.grib2 2026-05-03 15:02 328K
20260503T12Z_MSC_RDPS_DewPointDepression_IsbL-0350_RLatLon0.09_PT031H.grib2 2026-05-03 15:02 336K
20260503T12Z_MSC_RDPS_DewPointDepression_IsbL-0400_RLatLon0.09_PT031H.grib2 2026-05-03 15:02 345K
20260503T12Z_MSC_RDPS_DewPointDepression_IsbL-0450_RLatLon0.09_PT031H.grib2 2026-05-03 15:02 347K
20260503T12Z_MSC_RDPS_DewPointDepression_IsbL-0500_RLatLon0.09_PT031H.grib2 2026-05-03 15:02 352K
20260503T12Z_MSC_RDPS_DewPointDepression_IsbL-0550_RLatLon0.09_PT031H.grib2 2026-05-03 15:02 359K
20260503T12Z_MSC_RDPS_DewPointDepression_IsbL-0600_RLatLon0.09_PT031H.grib2 2026-05-03 15:02 370K
20260503T12Z_MSC_RDPS_DewPointDepression_IsbL-0650_RLatLon0.09_PT031H.grib2 2026-05-03 15:02 384K
20260503T12Z_MSC_RDPS_DewPointDepression_IsbL-0700_RLatLon0.09_PT031H.grib2 2026-05-03 15:02 400K
20260503T12Z_MSC_RDPS_DewPointDepression_IsbL-0750_RLatLon0.09_PT031H.grib2 2026-05-03 15:02 416K
20260503T12Z_MSC_RDPS_DewPointDepression_IsbL-0800_RLatLon0.09_PT031H.grib2 2026-05-03 15:02 459K
20260503T12Z_MSC_RDPS_DewPointDepression_IsbL-0850_RLatLon0.09_PT031H.grib2 2026-05-03 15:02 483K
20260503T12Z_MSC_RDPS_DewPointDepression_IsbL-0875_RLatLon0.09_PT031H.grib2 2026-05-03 15:02 481K
20260503T12Z_MSC_RDPS_DewPointDepression_IsbL-0900_RLatLon0.09_PT031H.grib2 2026-05-03 15:02 471K
20260503T12Z_MSC_RDPS_DewPointDepression_IsbL-0925_RLatLon0.09_PT031H.grib2 2026-05-03 15:02 457K
20260503T12Z_MSC_RDPS_DewPointDepression_IsbL-0950_RLatLon0.09_PT031H.grib2 2026-05-03 15:02 452K
20260503T12Z_MSC_RDPS_DewPointDepression_IsbL-0970_RLatLon0.09_PT031H.grib2 2026-05-03 15:02 445K
20260503T12Z_MSC_RDPS_DewPointDepression_IsbL-0985_RLatLon0.09_PT031H.grib2 2026-05-03 15:02 441K
20260503T12Z_MSC_RDPS_DewPointDepression_IsbL-1000_RLatLon0.09_PT031H.grib2 2026-05-03 15:02 435K
20260503T12Z_MSC_RDPS_DewPointDepression_IsbL-1015_RLatLon0.09_PT031H.grib2 2026-05-03 15:02 428K
20260503T12Z_MSC_RDPS_DewPoint_AGL-2m_RLatLon0.09_PT031H.grib2 2026-05-03 15:02 400K
20260503T12Z_MSC_RDPS_DownwardLongwaveRadiationFlux-Accum_Sfc_RLatLon0.09_PT031H.grib2 2026-05-03 15:02 482K
20260503T12Z_MSC_RDPS_DownwardShortwaveRadiationFlux-Accum_NTAtm_RLatLon0.09_PT031H.grib2 2026-05-03 15:02 151K
20260503T12Z_MSC_RDPS_DownwardShortwaveRadiationFlux-Accum_Sfc_RLatLon0.09_PT031H.grib2 2026-05-03 15:02 561K
20260503T12Z_MSC_RDPS_FreezingRain-Accum1h_Sfc_RLatLon0.09_PT031H.grib2 2026-05-03 15:02 13K
20260503T12Z_MSC_RDPS_FreezingRain-Accum_Sfc_RLatLon0.09_PT031H.grib2 2026-05-03 15:02 117K
20260503T12Z_MSC_RDPS_GeopotentialHeight_IsbL-0001_RLatLon0.09_PT031H.grib2 2026-05-03 15:02 360K
20260503T12Z_MSC_RDPS_GeopotentialHeight_IsbL-0005_RLatLon0.09_PT031H.grib2 2026-05-03 15:02 313K
20260503T12Z_MSC_RDPS_GeopotentialHeight_IsbL-0010_RLatLon0.09_PT031H.grib2 2026-05-03 15:02 314K
20260503T12Z_MSC_RDPS_GeopotentialHeight_IsbL-0020_RLatLon0.09_PT031H.grib2 2026-05-03 15:02 411K
20260503T12Z_MSC_RDPS_GeopotentialHeight_IsbL-0030_RLatLon0.09_PT031H.grib2 2026-05-03 15:02 414K
20260503T12Z_MSC_RDPS_GeopotentialHeight_IsbL-0050_RLatLon0.09_PT031H.grib2 2026-05-03 15:02 316K
20260503T12Z_MSC_RDPS_GeopotentialHeight_IsbL-0100_RLatLon0.09_PT031H.grib2 2026-05-03 15:02 293K
20260503T12Z_MSC_RDPS_GeopotentialHeight_IsbL-0150_RLatLon0.09_PT031H.grib2 2026-05-03 15:02 234K
20260503T12Z_MSC_RDPS_GeopotentialHeight_IsbL-0175_RLatLon0.09_PT031H.grib2 2026-05-03 15:02 237K
20260503T12Z_MSC_RDPS_GeopotentialHeight_IsbL-0200_RLatLon0.09_PT031H.grib2 2026-05-03 15:02 270K
20260503T12Z_MSC_RDPS_GeopotentialHeight_IsbL-0225_RLatLon0.09_PT031H.grib2 2026-05-03 15:02 271K
20260503T12Z_MSC_RDPS_GeopotentialHeight_IsbL-0250_RLatLon0.09_PT031H.grib2 2026-05-03 15:02 272K
20260503T12Z_MSC_RDPS_GeopotentialHeight_IsbL-0275_RLatLon0.09_PT031H.grib2 2026-05-03 15:02 271K
20260503T12Z_MSC_RDPS_GeopotentialHeight_IsbL-0300_RLatLon0.09_PT031H.grib2 2026-05-03 15:02 240K
20260503T12Z_MSC_RDPS_GeopotentialHeight_IsbL-0350_RLatLon0.09_PT031H.grib2 2026-05-03 15:02 234K
20260503T12Z_MSC_RDPS_GeopotentialHeight_IsbL-0400_RLatLon0.09_PT031H.grib2 2026-05-03 15:02 231K
20260503T12Z_MSC_RDPS_GeopotentialHeight_IsbL-0450_RLatLon0.09_PT031H.grib2 2026-05-03 15:02 302K
20260503T12Z_MSC_RDPS_GeopotentialHeight_IsbL-0500_RLatLon0.09_PT031H.grib2 2026-05-03 15:02 297K
20260503T12Z_MSC_RDPS_GeopotentialHeight_IsbL-0550_RLatLon0.09_PT031H.grib2 2026-05-03 15:02 294K
20260503T12Z_MSC_RDPS_GeopotentialHeight_IsbL-0600_RLatLon0.09_PT031H.grib2 2026-05-03 15:02 291K
20260503T12Z_MSC_RDPS_GeopotentialHeight_IsbL-0650_RLatLon0.09_PT031H.grib2 2026-05-03 15:02 261K
20260503T12Z_MSC_RDPS_GeopotentialHeight_IsbL-0700_RLatLon0.09_PT031H.grib2 2026-05-03 15:02 344K
20260503T12Z_MSC_RDPS_GeopotentialHeight_IsbL-0750_RLatLon0.09_PT031H.grib2 2026-05-03 15:02 347K
20260503T12Z_MSC_RDPS_GeopotentialHeight_IsbL-0800_RLatLon0.09_PT031H.grib2 2026-05-03 15:02 355K
20260503T12Z_MSC_RDPS_GeopotentialHeight_IsbL-0850_RLatLon0.09_PT031H.grib2 2026-05-03 15:02 364K
20260503T12Z_MSC_RDPS_GeopotentialHeight_IsbL-0875_RLatLon0.09_PT031H.grib2 2026-05-03 15:02 365K
20260503T12Z_MSC_RDPS_GeopotentialHeight_IsbL-0900_RLatLon0.09_PT031H.grib2 2026-05-03 15:02 371K
20260503T12Z_MSC_RDPS_GeopotentialHeight_IsbL-0925_RLatLon0.09_PT031H.grib2 2026-05-03 15:02 374K
20260503T12Z_MSC_RDPS_GeopotentialHeight_IsbL-0950_RLatLon0.09_PT031H.grib2 2026-05-03 15:02 377K
20260503T12Z_MSC_RDPS_GeopotentialHeight_IsbL-0970_RLatLon0.09_PT031H.grib2 2026-05-03 15:02 383K
20260503T12Z_MSC_RDPS_GeopotentialHeight_IsbL-0985_RLatLon0.09_PT031H.grib2 2026-05-03 15:02 393K
20260503T12Z_MSC_RDPS_GeopotentialHeight_IsbL-1000_RLatLon0.09_PT031H.grib2 2026-05-03 15:02 405K
20260503T12Z_MSC_RDPS_GeopotentialHeight_IsbL-1015_RLatLon0.09_PT031H.grib2 2026-05-03 15:02 324K
20260503T12Z_MSC_RDPS_Humidex_Sfc_RLatLon0.09_PT031H.grib2 2026-05-03 15:02 2.4M
20260503T12Z_MSC_RDPS_IcePellets-Accum1h_Sfc_RLatLon0.09_PT031H.grib2 2026-05-03 15:02 5.2K
20260503T12Z_MSC_RDPS_IcePellets-Accum_Sfc_RLatLon0.09_PT031H.grib2 2026-05-03 15:02 15K
20260503T12Z_MSC_RDPS_KIndex_Sfc_RLatLon0.09_PT031H.grib2 2026-05-03 15:02 2.4M
20260503T12Z_MSC_RDPS_LatentHeatNetFlux_Sfc_RLatLon0.09_PT031H.grib2 2026-05-03 15:02 320K
20260503T12Z_MSC_RDPS_LiftedIndex-MU-VT_IsbL-0500_RLatLon0.09_PT031H.grib2 2026-05-03 15:02 2.4M
20260503T12Z_MSC_RDPS_NetLongwaveRadiationFlux-Accum_Sfc_RLatLon0.09_PT031H.grib2 2026-05-03 15:02 491K
20260503T12Z_MSC_RDPS_NetShortwaveRadiationFlux-Accum_Sfc_RLatLon0.09_PT031H.grib2 2026-05-03 15:02 560K
20260503T12Z_MSC_RDPS_PlanetaryBoundaryLayerHeight_Sfc_RLatLon0.09_PT031H.grib2 2026-05-03 15:02 1.0M
20260503T12Z_MSC_RDPS_Precip-Accum1h_Sfc_RLatLon0.09_PT031H.grib2 2026-05-03 15:02 1.2M
20260503T12Z_MSC_RDPS_Precip-Accum_Sfc_RLatLon0.09_PT031H.grib2 2026-05-03 15:02 2.0M
20260503T12Z_MSC_RDPS_PrecipRate_Sfc_RLatLon0.09_PT031H.grib2 2026-05-03 15:02 181K
20260503T12Z_MSC_RDPS_PrecipType-Instant_Sfc_RLatLon0.09_PT031H.grib2 2026-05-03 15:02 577K
20260503T12Z_MSC_RDPS_Pressure-Trend3h_Sfc_RLatLon0.09_PT031H.grib2 2026-05-03 15:02 1.2M
20260503T12Z_MSC_RDPS_Pressure_MSL_RLatLon0.09_PT031H.grib2 2026-05-03 15:02 334K
20260503T12Z_MSC_RDPS_Pressure_PVU-1.5_RLatLon0.09_PT031H.grib2 2026-05-03 15:02 2.5M
20260503T12Z_MSC_RDPS_Pressure_PVU-1_RLatLon0.09_PT031H.grib2 2026-05-03 15:02 2.4M
20260503T12Z_MSC_RDPS_Pressure_PVU-2_RLatLon0.09_PT031H.grib2 2026-05-03 15:02 2.4M
20260503T12Z_MSC_RDPS_Pressure_Sfc_RLatLon0.09_PT031H.grib2 2026-05-03 15:02 500K
20260503T12Z_MSC_RDPS_RadiativeTemp_Sfc_RLatLon0.09_PT031H.grib2 2026-05-03 15:02 327K
20260503T12Z_MSC_RDPS_Rain-Accum1h_Sfc_RLatLon0.09_PT031H.grib2 2026-05-03 15:02 626K
20260503T12Z_MSC_RDPS_Rain-Accum_Sfc_RLatLon0.09_PT031H.grib2 2026-05-03 15:02 1.5M
20260503T12Z_MSC_RDPS_RelativeHumidity_AGL-2m_RLatLon0.09_PT031H.grib2 2026-05-03 15:02 1.0M
20260503T12Z_MSC_RDPS_RelativeHumidity_IsbL-0010_RLatLon0.09_PT031H.grib2 2026-05-03 15:02 623K
20260503T12Z_MSC_RDPS_RelativeHumidity_IsbL-0020_RLatLon0.09_PT031H.grib2 2026-05-03 15:02 672K
20260503T12Z_MSC_RDPS_RelativeHumidity_IsbL-0030_RLatLon0.09_PT031H.grib2 2026-05-03 15:02 605K
20260503T12Z_MSC_RDPS_RelativeHumidity_IsbL-0050_RLatLon0.09_PT031H.grib2 2026-05-03 15:02 363K
20260503T12Z_MSC_RDPS_RelativeHumidity_IsbL-0100_RLatLon0.09_PT031H.grib2 2026-05-03 15:02 288K
20260503T12Z_MSC_RDPS_RelativeHumidity_IsbL-0150_RLatLon0.09_PT031H.grib2 2026-05-03 15:02 417K
20260503T12Z_MSC_RDPS_RelativeHumidity_IsbL-0175_RLatLon0.09_PT031H.grib2 2026-05-03 15:02 483K
20260503T12Z_MSC_RDPS_RelativeHumidity_IsbL-0200_RLatLon0.09_PT031H.grib2 2026-05-03 15:02 557K
20260503T12Z_MSC_RDPS_RelativeHumidity_IsbL-0225_RLatLon0.09_PT031H.grib2 2026-05-03 15:02 627K
20260503T12Z_MSC_RDPS_RelativeHumidity_IsbL-0250_RLatLon0.09_PT031H.grib2 2026-05-03 15:02 695K
20260503T12Z_MSC_RDPS_RelativeHumidity_IsbL-0275_RLatLon0.09_PT031H.grib2 2026-05-03 15:02 718K
20260503T12Z_MSC_RDPS_RelativeHumidity_IsbL-0300_RLatLon0.09_PT031H.grib2 2026-05-03 15:02 755K
20260503T12Z_MSC_RDPS_RelativeHumidity_IsbL-0350_RLatLon0.09_PT031H.grib2 2026-05-03 15:02 779K
20260503T12Z_MSC_RDPS_RelativeHumidity_IsbL-0400_RLatLon0.09_PT031H.grib2 2026-05-03 15:02 794K
20260503T12Z_MSC_RDPS_RelativeHumidity_IsbL-0450_RLatLon0.09_PT031H.grib2 2026-05-03 15:02 796K
20260503T12Z_MSC_RDPS_RelativeHumidity_IsbL-0500_RLatLon0.09_PT031H.grib2 2026-05-03 15:02 798K
20260503T12Z_MSC_RDPS_RelativeHumidity_IsbL-0550_RLatLon0.09_PT031H.grib2 2026-05-03 15:02 824K
20260503T12Z_MSC_RDPS_RelativeHumidity_IsbL-0600_RLatLon0.09_PT031H.grib2 2026-05-03 15:02 843K
20260503T12Z_MSC_RDPS_RelativeHumidity_IsbL-0650_RLatLon0.09_PT031H.grib2 2026-05-03 15:02 853K
20260503T12Z_MSC_RDPS_RelativeHumidity_IsbL-0700_RLatLon0.09_PT031H.grib2 2026-05-03 15:02 891K
20260503T12Z_MSC_RDPS_RelativeHumidity_IsbL-0750_RLatLon0.09_PT031H.grib2 2026-05-03 15:02 930K
20260503T12Z_MSC_RDPS_RelativeHumidity_IsbL-0800_RLatLon0.09_PT031H.grib2 2026-05-03 15:02 1.0M
20260503T12Z_MSC_RDPS_RelativeHumidity_IsbL-0850_RLatLon0.09_PT031H.grib2 2026-05-03 15:02 1.0M
20260503T12Z_MSC_RDPS_RelativeHumidity_IsbL-0875_RLatLon0.09_PT031H.grib2 2026-05-03 15:02 1.1M
20260503T12Z_MSC_RDPS_RelativeHumidity_IsbL-0900_RLatLon0.09_PT031H.grib2 2026-05-03 15:02 1.1M
20260503T12Z_MSC_RDPS_RelativeHumidity_IsbL-0925_RLatLon0.09_PT031H.grib2 2026-05-03 15:02 1.1M
20260503T12Z_MSC_RDPS_RelativeHumidity_IsbL-0950_RLatLon0.09_PT031H.grib2 2026-05-03 15:02 1.1M
20260503T12Z_MSC_RDPS_RelativeHumidity_IsbL-0970_RLatLon0.09_PT031H.grib2 2026-05-03 15:02 1.1M
20260503T12Z_MSC_RDPS_RelativeHumidity_IsbL-0985_RLatLon0.09_PT031H.grib2 2026-05-03 15:02 1.0M
20260503T12Z_MSC_RDPS_RelativeHumidity_IsbL-1000_RLatLon0.09_PT031H.grib2 2026-05-03 15:02 1.0M
20260503T12Z_MSC_RDPS_RelativeHumidity_IsbL-1015_RLatLon0.09_PT031H.grib2 2026-05-03 15:02 1.0M
20260503T12Z_MSC_RDPS_Runoff-Accum_Sfc_RLatLon0.09_PT031H.grib2 2026-05-03 15:02 59K
20260503T12Z_MSC_RDPS_SWEATIndex_Sfc_RLatLon0.09_PT031H.grib2 2026-05-03 15:02 2.5M
20260503T12Z_MSC_RDPS_SeeingIndex_EAtm_RLatLon0.09_PT031H.grib2 2026-05-03 15:02 1.0M
20260503T12Z_MSC_RDPS_SensibleHeatNetFlux_Sfc_RLatLon0.09_PT031H.grib2 2026-05-03 15:02 372K
20260503T12Z_MSC_RDPS_ShowalterIndex_IsbL-0500_RLatLon0.09_PT031H.grib2 2026-05-03 15:02 2.6M
20260503T12Z_MSC_RDPS_SkyTransparencyIndex_EAtm_RLatLon0.09_PT031H.grib2 2026-05-03 15:02 734K
20260503T12Z_MSC_RDPS_Snow-Accum1h_Sfc_RLatLon0.09_PT031H.grib2 2026-05-03 15:02 460K
20260503T12Z_MSC_RDPS_Snow-Accum_Sfc_RLatLon0.09_PT031H.grib2 2026-05-03 15:02 725K
20260503T12Z_MSC_RDPS_SnowDensity_Sfc_RLatLon0.09_PT031H.grib2 2026-05-03 15:02 169K
20260503T12Z_MSC_RDPS_SnowDepth_Sfc_RLatLon0.09_PT031H.grib2 2026-05-03 15:02 652K
20260503T12Z_MSC_RDPS_SoilTemp_DBS-0to10cm_RLatLon0.09_PT031H.grib2 2026-05-03 15:02 234K
20260503T12Z_MSC_RDPS_SoilTemp_Sfc_RLatLon0.09_PT031H.grib2 2026-05-03 15:02 297K
20260503T12Z_MSC_RDPS_SoilVolumetricIceContent_Sfc_RLatLon0.09_PT031H.grib2 2026-05-03 15:02 154K
20260503T12Z_MSC_RDPS_SoilVolumetricWaterContent_DBS-0to10cm_RLatLon0.09_PT031H.grib2 2026-05-03 15:02 275K
20260503T12Z_MSC_RDPS_SoilVolumetricWaterContent_DBS-0to1cm_RLatLon0.09_PT031H.grib2 2026-05-03 15:02 339K
20260503T12Z_MSC_RDPS_SpecificHumidity_AGL-120m_RLatLon0.09_PT031H.grib2 2026-05-03 15:02 500K
20260503T12Z_MSC_RDPS_SpecificHumidity_AGL-2m_RLatLon0.09_PT031H.grib2 2026-05-03 15:02 673K
20260503T12Z_MSC_RDPS_SpecificHumidity_AGL-40m_RLatLon0.09_PT031H.grib2 2026-05-03 15:02 506K
20260503T12Z_MSC_RDPS_SpecificHumidity_AGL-80m_RLatLon0.09_PT031H.grib2 2026-05-03 15:02 502K
20260503T12Z_MSC_RDPS_SpecificHumidity_IsbL-0001_RLatLon0.09_PT031H.grib2 2026-05-03 15:02 405K
20260503T12Z_MSC_RDPS_SpecificHumidity_IsbL-0005_RLatLon0.09_PT031H.grib2 2026-05-03 15:02 372K
20260503T12Z_MSC_RDPS_SpecificHumidity_IsbL-0010_RLatLon0.09_PT031H.grib2 2026-05-03 15:02 402K
20260503T12Z_MSC_RDPS_SpecificHumidity_IsbL-0020_RLatLon0.09_PT031H.grib2 2026-05-03 15:02 383K
20260503T12Z_MSC_RDPS_SpecificHumidity_IsbL-0030_RLatLon0.09_PT031H.grib2 2026-05-03 15:02 378K
20260503T12Z_MSC_RDPS_SpecificHumidity_IsbL-0050_RLatLon0.09_PT031H.grib2 2026-05-03 15:02 491K
20260503T12Z_MSC_RDPS_SpecificHumidity_IsbL-0100_RLatLon0.09_PT031H.grib2 2026-05-03 15:02 541K
20260503T12Z_MSC_RDPS_SpecificHumidity_IsbL-0150_RLatLon0.09_PT031H.grib2 2026-05-03 15:02 456K
20260503T12Z_MSC_RDPS_SpecificHumidity_IsbL-0175_RLatLon0.09_PT031H.grib2 2026-05-03 15:02 445K
20260503T12Z_MSC_RDPS_SpecificHumidity_IsbL-0200_RLatLon0.09_PT031H.grib2 2026-05-03 15:02 477K
20260503T12Z_MSC_RDPS_SpecificHumidity_IsbL-0225_RLatLon0.09_PT031H.grib2 2026-05-03 15:02 465K
20260503T12Z_MSC_RDPS_SpecificHumidity_IsbL-0250_RLatLon0.09_PT031H.grib2 2026-05-03 15:02 528K
20260503T12Z_MSC_RDPS_SpecificHumidity_IsbL-0275_RLatLon0.09_PT031H.grib2 2026-05-03 15:02 488K
20260503T12Z_MSC_RDPS_SpecificHumidity_IsbL-0300_RLatLon0.09_PT031H.grib2 2026-05-03 15:02 458K
20260503T12Z_MSC_RDPS_SpecificHumidity_IsbL-0350_RLatLon0.09_PT031H.grib2 2026-05-03 15:02 579K
20260503T12Z_MSC_RDPS_SpecificHumidity_IsbL-0400_RLatLon0.09_PT031H.grib2 2026-05-03 15:02 533K
20260503T12Z_MSC_RDPS_SpecificHumidity_IsbL-0450_RLatLon0.09_PT031H.grib2 2026-05-03 15:02 580K
20260503T12Z_MSC_RDPS_SpecificHumidity_IsbL-0500_RLatLon0.09_PT031H.grib2 2026-05-03 15:02 512K
20260503T12Z_MSC_RDPS_SpecificHumidity_IsbL-0550_RLatLon0.09_PT031H.grib2 2026-05-03 15:02 582K
20260503T12Z_MSC_RDPS_SpecificHumidity_IsbL-0600_RLatLon0.09_PT031H.grib2 2026-05-03 15:02 632K
20260503T12Z_MSC_RDPS_SpecificHumidity_IsbL-0650_RLatLon0.09_PT031H.grib2 2026-05-03 15:02 554K
20260503T12Z_MSC_RDPS_SpecificHumidity_IsbL-0700_RLatLon0.09_PT031H.grib2 2026-05-03 15:02 604K
20260503T12Z_MSC_RDPS_SpecificHumidity_IsbL-0750_RLatLon0.09_PT031H.grib2 2026-05-03 15:02 671K
20260503T12Z_MSC_RDPS_SpecificHumidity_IsbL-0800_RLatLon0.09_PT031H.grib2 2026-05-03 15:02 748K
20260503T12Z_MSC_RDPS_SpecificHumidity_IsbL-0850_RLatLon0.09_PT031H.grib2 2026-05-03 15:02 825K
20260503T12Z_MSC_RDPS_SpecificHumidity_IsbL-0875_RLatLon0.09_PT031H.grib2 2026-05-03 15:02 709K
20260503T12Z_MSC_RDPS_SpecificHumidity_IsbL-0900_RLatLon0.09_PT031H.grib2 2026-05-03 15:02 718K
20260503T12Z_MSC_RDPS_SpecificHumidity_IsbL-0925_RLatLon0.09_PT031H.grib2 2026-05-03 15:02 717K
20260503T12Z_MSC_RDPS_SpecificHumidity_IsbL-0950_RLatLon0.09_PT031H.grib2 2026-05-03 15:02 719K
20260503T12Z_MSC_RDPS_SpecificHumidity_IsbL-0970_RLatLon0.09_PT031H.grib2 2026-05-03 15:02 712K
20260503T12Z_MSC_RDPS_SpecificHumidity_IsbL-0985_RLatLon0.09_PT031H.grib2 2026-05-03 15:02 706K
20260503T12Z_MSC_RDPS_SpecificHumidity_IsbL-1000_RLatLon0.09_PT031H.grib2 2026-05-03 15:02 699K
20260503T12Z_MSC_RDPS_SpecificHumidity_IsbL-1015_RLatLon0.09_PT031H.grib2 2026-05-03 15:02 689K
20260503T12Z_MSC_RDPS_SpecificHumidity_Sfc_RLatLon0.09_PT031H.grib2 2026-05-03 15:02 346K
20260503T12Z_MSC_RDPS_StormRelativeHelicity_EtaL-10000_RLatLon0.09_PT031H.grib2 2026-05-03 15:02 1.1M
20260503T12Z_MSC_RDPS_StormSeverityIndex_EtaL-10000_RLatLon0.09_PT031H.grib2 2026-05-03 15:02 1.2M
20260503T12Z_MSC_RDPS_Thickness_IsbL-0850to0700_RLatLon0.09_PT031H.grib2 2026-05-03 15:02 180K
20260503T12Z_MSC_RDPS_Thickness_IsbL-1000to0500_RLatLon0.09_PT031H.grib2 2026-05-03 15:02 203K
20260503T12Z_MSC_RDPS_Thickness_IsbL-1000to0850_RLatLon0.09_PT031H.grib2 2026-05-03 15:02 267K
20260503T12Z_MSC_RDPS_TotalCloudCover_Sfc_RLatLon0.09_PT031H.grib2 2026-05-03 15:02 658K
20260503T12Z_MSC_RDPS_TotalTotalsIndex_Sfc_RLatLon0.09_PT031H.grib2 2026-05-03 15:02 2.4M
20260503T12Z_MSC_RDPS_UVIndex-ClearSky_Sfc_RLatLon0.09_PT031H.grib2 2026-05-03 15:02 227K
20260503T12Z_MSC_RDPS_UVIndex_Sfc_RLatLon0.09_PT031H.grib2 2026-05-03 15:02 536K
20260503T12Z_MSC_RDPS_UpwardLongwaveRadiationFlux_NTAtm_RLatLon0.09_PT031H.grib2 2026-05-03 15:02 384K
20260503T12Z_MSC_RDPS_UpwardShortwaveRadiationFlux_NTAtm_RLatLon0.09_PT031H.grib2 2026-05-03 15:02 566K
20260503T12Z_MSC_RDPS_VerticalVelocity_IsbL-0250_RLatLon0.09_PT031H.grib2 2026-05-03 15:02 468K
20260503T12Z_MSC_RDPS_VerticalVelocity_IsbL-0500_RLatLon0.09_PT031H.grib2 2026-05-03 15:02 692K
20260503T12Z_MSC_RDPS_VerticalVelocity_IsbL-0700_RLatLon0.09_PT031H.grib2 2026-05-03 15:02 610K
20260503T12Z_MSC_RDPS_VerticalVelocity_IsbL-0850_RLatLon0.09_PT031H.grib2 2026-05-03 15:02 716K
20260503T12Z_MSC_RDPS_VerticalWindShear_EtaL-6500_RLatLon0.09_PT031H.grib2 2026-05-03 15:02 1.2M
20260503T12Z_MSC_RDPS_WindChill_Sfc_RLatLon0.09_PT031H.grib2 2026-05-03 15:02 1.1M
20260503T12Z_MSC_RDPS_WindDir_AGL-10m_RLatLon0.09_PT031H.grib2 2026-05-03 15:02 970K
20260503T12Z_MSC_RDPS_WindDir_AGL-120m_RLatLon0.09_PT031H.grib2 2026-05-03 15:02 615K
20260503T12Z_MSC_RDPS_WindDir_AGL-40m_RLatLon0.09_PT031H.grib2 2026-05-03 15:02 636K
20260503T12Z_MSC_RDPS_WindDir_AGL-80m_RLatLon0.09_PT031H.grib2 2026-05-03 15:02 623K
20260503T12Z_MSC_RDPS_WindDir_IsbL-0001_RLatLon0.09_PT031H.grib2 2026-05-03 15:02 295K
20260503T12Z_MSC_RDPS_WindDir_IsbL-0005_RLatLon0.09_PT031H.grib2 2026-05-03 15:02 410K
20260503T12Z_MSC_RDPS_WindDir_IsbL-0010_RLatLon0.09_PT031H.grib2 2026-05-03 15:02 389K
20260503T12Z_MSC_RDPS_WindDir_IsbL-0020_RLatLon0.09_PT031H.grib2 2026-05-03 15:02 414K
20260503T12Z_MSC_RDPS_WindDir_IsbL-0030_RLatLon0.09_PT031H.grib2 2026-05-03 15:02 419K
20260503T12Z_MSC_RDPS_WindDir_IsbL-0050_RLatLon0.09_PT031H.grib2 2026-05-03 15:02 428K
20260503T12Z_MSC_RDPS_WindDir_IsbL-0100_RLatLon0.09_PT031H.grib2 2026-05-03 15:02 412K
20260503T12Z_MSC_RDPS_WindDir_IsbL-0150_RLatLon0.09_PT031H.grib2 2026-05-03 15:02 417K
20260503T12Z_MSC_RDPS_WindDir_IsbL-0175_RLatLon0.09_PT031H.grib2 2026-05-03 15:02 441K
20260503T12Z_MSC_RDPS_WindDir_IsbL-0200_RLatLon0.09_PT031H.grib2 2026-05-03 15:02 450K
20260503T12Z_MSC_RDPS_WindDir_IsbL-0225_RLatLon0.09_PT031H.grib2 2026-05-03 15:02 451K
20260503T12Z_MSC_RDPS_WindDir_IsbL-0250_RLatLon0.09_PT031H.grib2 2026-05-03 15:02 454K
20260503T12Z_MSC_RDPS_WindDir_IsbL-0275_RLatLon0.09_PT031H.grib2 2026-05-03 15:02 474K
20260503T12Z_MSC_RDPS_WindDir_IsbL-0300_RLatLon0.09_PT031H.grib2 2026-05-03 15:02 472K
20260503T12Z_MSC_RDPS_WindDir_IsbL-0350_RLatLon0.09_PT031H.grib2 2026-05-03 15:02 493K
20260503T12Z_MSC_RDPS_WindDir_IsbL-0400_RLatLon0.09_PT031H.grib2 2026-05-03 15:02 517K
20260503T12Z_MSC_RDPS_WindDir_IsbL-0450_RLatLon0.09_PT031H.grib2 2026-05-03 15:02 527K
20260503T12Z_MSC_RDPS_WindDir_IsbL-0500_RLatLon0.09_PT031H.grib2 2026-05-03 15:02 537K
20260503T12Z_MSC_RDPS_WindDir_IsbL-0550_RLatLon0.09_PT031H.grib2 2026-05-03 15:02 547K
20260503T12Z_MSC_RDPS_WindDir_IsbL-0600_RLatLon0.09_PT031H.grib2 2026-05-03 15:02 578K
20260503T12Z_MSC_RDPS_WindDir_IsbL-0650_RLatLon0.09_PT031H.grib2 2026-05-03 15:02 615K
20260503T12Z_MSC_RDPS_WindDir_IsbL-0700_RLatLon0.09_PT031H.grib2 2026-05-03 15:02 656K
20260503T12Z_MSC_RDPS_WindDir_IsbL-0750_RLatLon0.09_PT031H.grib2 2026-05-03 15:02 708K
20260503T12Z_MSC_RDPS_WindDir_IsbL-0800_RLatLon0.09_PT031H.grib2 2026-05-03 15:02 782K
20260503T12Z_MSC_RDPS_WindDir_IsbL-0850_RLatLon0.09_PT031H.grib2 2026-05-03 15:02 866K
20260503T12Z_MSC_RDPS_WindDir_IsbL-0875_RLatLon0.09_PT031H.grib2 2026-05-03 15:02 899K
20260503T12Z_MSC_RDPS_WindDir_IsbL-0900_RLatLon0.09_PT031H.grib2 2026-05-03 15:02 917K
20260503T12Z_MSC_RDPS_WindDir_IsbL-0925_RLatLon0.09_PT031H.grib2 2026-05-03 15:02 920K
20260503T12Z_MSC_RDPS_WindDir_IsbL-0950_RLatLon0.09_PT031H.grib2 2026-05-03 15:02 914K
20260503T12Z_MSC_RDPS_WindDir_IsbL-0970_RLatLon0.09_PT031H.grib2 2026-05-03 15:02 920K
20260503T12Z_MSC_RDPS_WindDir_IsbL-0985_RLatLon0.09_PT031H.grib2 2026-05-03 15:02 931K
20260503T12Z_MSC_RDPS_WindDir_IsbL-1000_RLatLon0.09_PT031H.grib2 2026-05-03 15:02 945K
20260503T12Z_MSC_RDPS_WindDir_IsbL-1015_RLatLon0.09_PT031H.grib2 2026-05-03 15:02 961K
20260503T12Z_MSC_RDPS_WindGust-Max_AGL-10m_RLatLon0.09_PT031H.grib2 2026-05-03 15:02 1.0M
20260503T12Z_MSC_RDPS_WindGust-Min_AGL-10m_RLatLon0.09_PT031H.grib2 2026-05-03 15:02 1.0M
20260503T12Z_MSC_RDPS_WindGust_AGL-10m_RLatLon0.09_PT031H.grib2 2026-05-03 15:02 1.0M
20260503T12Z_MSC_RDPS_WindSpeed_AGL-10m_RLatLon0.09_PT031H.grib2 2026-05-03 15:02 851K
20260503T12Z_MSC_RDPS_WindSpeed_AGL-120m_RLatLon0.09_PT031H.grib2 2026-05-03 15:02 542K
20260503T12Z_MSC_RDPS_WindSpeed_AGL-40m_RLatLon0.09_PT031H.grib2 2026-05-03 15:02 679K
20260503T12Z_MSC_RDPS_WindSpeed_AGL-80m_RLatLon0.09_PT031H.grib2 2026-05-03 15:02 543K
20260503T12Z_MSC_RDPS_WindSpeed_IsbL-0001_RLatLon0.09_PT031H.grib2 2026-05-03 15:02 258K
20260503T12Z_MSC_RDPS_WindSpeed_IsbL-0005_RLatLon0.09_PT031H.grib2 2026-05-03 15:02 353K
20260503T12Z_MSC_RDPS_WindSpeed_IsbL-0010_RLatLon0.09_PT031H.grib2 2026-05-03 15:02 366K
20260503T12Z_MSC_RDPS_WindSpeed_IsbL-0020_RLatLon0.09_PT031H.grib2 2026-05-03 15:02 325K
20260503T12Z_MSC_RDPS_WindSpeed_IsbL-0030_RLatLon0.09_PT031H.grib2 2026-05-03 15:02 323K
20260503T12Z_MSC_RDPS_WindSpeed_IsbL-0050_RLatLon0.09_PT031H.grib2 2026-05-03 15:02 357K
20260503T12Z_MSC_RDPS_WindSpeed_IsbL-0100_RLatLon0.09_PT031H.grib2 2026-05-03 15:02 487K
20260503T12Z_MSC_RDPS_WindSpeed_IsbL-0150_RLatLon0.09_PT031H.grib2 2026-05-03 15:02 389K
20260503T12Z_MSC_RDPS_WindSpeed_IsbL-0175_RLatLon0.09_PT031H.grib2 2026-05-03 15:02 433K
20260503T12Z_MSC_RDPS_WindSpeed_IsbL-0200_RLatLon0.09_PT031H.grib2 2026-05-03 15:02 447K
20260503T12Z_MSC_RDPS_WindSpeed_IsbL-0225_RLatLon0.09_PT031H.grib2 2026-05-03 15:02 452K
20260503T12Z_MSC_RDPS_WindSpeed_IsbL-0250_RLatLon0.09_PT031H.grib2 2026-05-03 15:02 454K
20260503T12Z_MSC_RDPS_WindSpeed_IsbL-0275_RLatLon0.09_PT031H.grib2 2026-05-03 15:02 470K
20260503T12Z_MSC_RDPS_WindSpeed_IsbL-0300_RLatLon0.09_PT031H.grib2 2026-05-03 15:02 469K
20260503T12Z_MSC_RDPS_WindSpeed_IsbL-0350_RLatLon0.09_PT031H.grib2 2026-05-03 15:02 481K
20260503T12Z_MSC_RDPS_WindSpeed_IsbL-0400_RLatLon0.09_PT031H.grib2 2026-05-03 15:02 467K
20260503T12Z_MSC_RDPS_WindSpeed_IsbL-0450_RLatLon0.09_PT031H.grib2 2026-05-03 15:02 470K
20260503T12Z_MSC_RDPS_WindSpeed_IsbL-0500_RLatLon0.09_PT031H.grib2 2026-05-03 15:02 470K
20260503T12Z_MSC_RDPS_WindSpeed_IsbL-0550_RLatLon0.09_PT031H.grib2 2026-05-03 15:02 470K
20260503T12Z_MSC_RDPS_WindSpeed_IsbL-0600_RLatLon0.09_PT031H.grib2 2026-05-03 15:02 598K
20260503T12Z_MSC_RDPS_WindSpeed_IsbL-0650_RLatLon0.09_PT031H.grib2 2026-05-03 15:02 619K
20260503T12Z_MSC_RDPS_WindSpeed_IsbL-0700_RLatLon0.09_PT031H.grib2 2026-05-03 15:02 642K
20260503T12Z_MSC_RDPS_WindSpeed_IsbL-0750_RLatLon0.09_PT031H.grib2 2026-05-03 15:02 714K
20260503T12Z_MSC_RDPS_WindSpeed_IsbL-0800_RLatLon0.09_PT031H.grib2 2026-05-03 15:02 765K
20260503T12Z_MSC_RDPS_WindSpeed_IsbL-0850_RLatLon0.09_PT031H.grib2 2026-05-03 15:02 828K
20260503T12Z_MSC_RDPS_WindSpeed_IsbL-0875_RLatLon0.09_PT031H.grib2 2026-05-03 15:02 851K
20260503T12Z_MSC_RDPS_WindSpeed_IsbL-0900_RLatLon0.09_PT031H.grib2 2026-05-03 15:02 863K
20260503T12Z_MSC_RDPS_WindSpeed_IsbL-0925_RLatLon0.09_PT031H.grib2 2026-05-03 15:02 874K
20260503T12Z_MSC_RDPS_WindSpeed_IsbL-0950_RLatLon0.09_PT031H.grib2 2026-05-03 15:02 870K
20260503T12Z_MSC_RDPS_WindSpeed_IsbL-0970_RLatLon0.09_PT031H.grib2 2026-05-03 15:02 869K
20260503T12Z_MSC_RDPS_WindSpeed_IsbL-0985_RLatLon0.09_PT031H.grib2 2026-05-03 15:02 865K
20260503T12Z_MSC_RDPS_WindSpeed_IsbL-1000_RLatLon0.09_PT031H.grib2 2026-05-03 15:02 860K
20260503T12Z_MSC_RDPS_WindSpeed_IsbL-1015_RLatLon0.09_PT031H.grib2 2026-05-03 15:02 852K
20260503T12Z_MSC_RDPS_WindU_AGL-10m_RLatLon0.09_PT031H.grib2 2026-05-03 15:02 439K
20260503T12Z_MSC_RDPS_WindU_AGL-120m_RLatLon0.09_PT031H.grib2 2026-05-03 15:02 539K
20260503T12Z_MSC_RDPS_WindU_AGL-40m_RLatLon0.09_PT031H.grib2 2026-05-03 15:02 542K
20260503T12Z_MSC_RDPS_WindU_AGL-80m_RLatLon0.09_PT031H.grib2 2026-05-03 15:02 540K
20260503T12Z_MSC_RDPS_WindU_IsbL-0001_RLatLon0.09_PT031H.grib2 2026-05-03 15:02 297K
20260503T12Z_MSC_RDPS_WindU_IsbL-0005_RLatLon0.09_PT031H.grib2 2026-05-03 15:02 286K
20260503T12Z_MSC_RDPS_WindU_IsbL-0010_RLatLon0.09_PT031H.grib2 2026-05-03 15:02 299K
20260503T12Z_MSC_RDPS_WindU_IsbL-0020_RLatLon0.09_PT031H.grib2 2026-05-03 15:02 356K
20260503T12Z_MSC_RDPS_WindU_IsbL-0030_RLatLon0.09_PT031H.grib2 2026-05-03 15:02 356K
20260503T12Z_MSC_RDPS_WindU_IsbL-0050_RLatLon0.09_PT031H.grib2 2026-05-03 15:02 385K
20260503T12Z_MSC_RDPS_WindU_IsbL-0100_RLatLon0.09_PT031H.grib2 2026-05-03 15:02 440K
20260503T12Z_MSC_RDPS_WindU_IsbL-0150_RLatLon0.09_PT031H.grib2 2026-05-03 15:02 404K
20260503T12Z_MSC_RDPS_WindU_IsbL-0175_RLatLon0.09_PT031H.grib2 2026-05-03 15:02 427K
20260503T12Z_MSC_RDPS_WindU_IsbL-0200_RLatLon0.09_PT031H.grib2 2026-05-03 15:02 440K
20260503T12Z_MSC_RDPS_WindU_IsbL-0225_RLatLon0.09_PT031H.grib2 2026-05-03 15:02 345K
20260503T12Z_MSC_RDPS_WindU_IsbL-0250_RLatLon0.09_PT031H.grib2 2026-05-03 15:02 345K
20260503T12Z_MSC_RDPS_WindU_IsbL-0275_RLatLon0.09_PT031H.grib2 2026-05-03 15:02 359K
20260503T12Z_MSC_RDPS_WindU_IsbL-0300_RLatLon0.09_PT031H.grib2 2026-05-03 15:02 356K
20260503T12Z_MSC_RDPS_WindU_IsbL-0350_RLatLon0.09_PT031H.grib2 2026-05-03 15:02 366K
20260503T12Z_MSC_RDPS_WindU_IsbL-0400_RLatLon0.09_PT031H.grib2 2026-05-03 15:02 473K
20260503T12Z_MSC_RDPS_WindU_IsbL-0450_RLatLon0.09_PT031H.grib2 2026-05-03 15:02 474K
20260503T12Z_MSC_RDPS_WindU_IsbL-0500_RLatLon0.09_PT031H.grib2 2026-05-03 15:02 475K
20260503T12Z_MSC_RDPS_WindU_IsbL-0550_RLatLon0.09_PT031H.grib2 2026-05-03 15:02 477K
20260503T12Z_MSC_RDPS_WindU_IsbL-0600_RLatLon0.09_PT031H.grib2 2026-05-03 15:02 487K
20260503T12Z_MSC_RDPS_WindU_IsbL-0650_RLatLon0.09_PT031H.grib2 2026-05-03 15:02 505K
20260503T12Z_MSC_RDPS_WindU_IsbL-0700_RLatLon0.09_PT031H.grib2 2026-05-03 15:02 511K
20260503T12Z_MSC_RDPS_WindU_IsbL-0750_RLatLon0.09_PT031H.grib2 2026-05-03 15:02 536K
20260503T12Z_MSC_RDPS_WindU_IsbL-0800_RLatLon0.09_PT031H.grib2 2026-05-03 15:02 581K
20260503T12Z_MSC_RDPS_WindU_IsbL-0850_RLatLon0.09_PT031H.grib2 2026-05-03 15:02 636K
20260503T12Z_MSC_RDPS_WindU_IsbL-0875_RLatLon0.09_PT031H.grib2 2026-05-03 15:02 655K
20260503T12Z_MSC_RDPS_WindU_IsbL-0900_RLatLon0.09_PT031H.grib2 2026-05-03 15:02 663K
20260503T12Z_MSC_RDPS_WindU_IsbL-0925_RLatLon0.09_PT031H.grib2 2026-05-03 15:02 669K
20260503T12Z_MSC_RDPS_WindU_IsbL-0950_RLatLon0.09_PT031H.grib2 2026-05-03 15:02 664K
20260503T12Z_MSC_RDPS_WindU_IsbL-0970_RLatLon0.09_PT031H.grib2 2026-05-03 15:02 803K
20260503T12Z_MSC_RDPS_WindU_IsbL-0985_RLatLon0.09_PT031H.grib2 2026-05-03 15:02 799K
20260503T12Z_MSC_RDPS_WindU_IsbL-1000_RLatLon0.09_PT031H.grib2 2026-05-03 15:02 795K
20260503T12Z_MSC_RDPS_WindU_IsbL-1015_RLatLon0.09_PT031H.grib2 2026-05-03 15:02 836K
20260503T12Z_MSC_RDPS_WindV_AGL-10m_RLatLon0.09_PT031H.grib2 2026-05-03 15:02 441K
20260503T12Z_MSC_RDPS_WindV_AGL-120m_RLatLon0.09_PT031H.grib2 2026-05-03 15:02 539K
20260503T12Z_MSC_RDPS_WindV_AGL-40m_RLatLon0.09_PT031H.grib2 2026-05-03 15:02 544K
20260503T12Z_MSC_RDPS_WindV_AGL-80m_RLatLon0.09_PT031H.grib2 2026-05-03 15:02 541K
20260503T12Z_MSC_RDPS_WindV_IsbL-0001_RLatLon0.09_PT031H.grib2 2026-05-03 15:02 251K
20260503T12Z_MSC_RDPS_WindV_IsbL-0005_RLatLon0.09_PT031H.grib2 2026-05-03 15:02 289K
20260503T12Z_MSC_RDPS_WindV_IsbL-0010_RLatLon0.09_PT031H.grib2 2026-05-03 15:02 300K
20260503T12Z_MSC_RDPS_WindV_IsbL-0020_RLatLon0.09_PT031H.grib2 2026-05-03 15:02 318K
20260503T12Z_MSC_RDPS_WindV_IsbL-0030_RLatLon0.09_PT031H.grib2 2026-05-03 15:02 318K
20260503T12Z_MSC_RDPS_WindV_IsbL-0050_RLatLon0.09_PT031H.grib2 2026-05-03 15:02 350K
20260503T12Z_MSC_RDPS_WindV_IsbL-0100_RLatLon0.09_PT031H.grib2 2026-05-03 15:02 340K
20260503T12Z_MSC_RDPS_WindV_IsbL-0150_RLatLon0.09_PT031H.grib2 2026-05-03 15:02 401K
20260503T12Z_MSC_RDPS_WindV_IsbL-0175_RLatLon0.09_PT031H.grib2 2026-05-03 15:02 328K
20260503T12Z_MSC_RDPS_WindV_IsbL-0200_RLatLon0.09_PT031H.grib2 2026-05-03 15:02 364K
20260503T12Z_MSC_RDPS_WindV_IsbL-0225_RLatLon0.09_PT031H.grib2 2026-05-03 15:02 368K
20260503T12Z_MSC_RDPS_WindV_IsbL-0250_RLatLon0.09_PT031H.grib2 2026-05-03 15:02 369K
20260503T12Z_MSC_RDPS_WindV_IsbL-0275_RLatLon0.09_PT031H.grib2 2026-05-03 15:02 381K
20260503T12Z_MSC_RDPS_WindV_IsbL-0300_RLatLon0.09_PT031H.grib2 2026-05-03 15:02 355K
20260503T12Z_MSC_RDPS_WindV_IsbL-0350_RLatLon0.09_PT031H.grib2 2026-05-03 15:02 363K
20260503T12Z_MSC_RDPS_WindV_IsbL-0400_RLatLon0.09_PT031H.grib2 2026-05-03 15:02 366K
20260503T12Z_MSC_RDPS_WindV_IsbL-0450_RLatLon0.09_PT031H.grib2 2026-05-03 15:02 368K
20260503T12Z_MSC_RDPS_WindV_IsbL-0500_RLatLon0.09_PT031H.grib2 2026-05-03 15:02 368K
20260503T12Z_MSC_RDPS_WindV_IsbL-0550_RLatLon0.09_PT031H.grib2 2026-05-03 15:02 473K
20260503T12Z_MSC_RDPS_WindV_IsbL-0600_RLatLon0.09_PT031H.grib2 2026-05-03 15:02 483K
20260503T12Z_MSC_RDPS_WindV_IsbL-0650_RLatLon0.09_PT031H.grib2 2026-05-03 15:02 501K
20260503T12Z_MSC_RDPS_WindV_IsbL-0700_RLatLon0.09_PT031H.grib2 2026-05-03 15:02 521K
20260503T12Z_MSC_RDPS_WindV_IsbL-0750_RLatLon0.09_PT031H.grib2 2026-05-03 15:02 544K
20260503T12Z_MSC_RDPS_WindV_IsbL-0800_RLatLon0.09_PT031H.grib2 2026-05-03 15:02 585K
20260503T12Z_MSC_RDPS_WindV_IsbL-0850_RLatLon0.09_PT031H.grib2 2026-05-03 15:02 629K
20260503T12Z_MSC_RDPS_WindV_IsbL-0875_RLatLon0.09_PT031H.grib2 2026-05-03 15:02 650K
20260503T12Z_MSC_RDPS_WindV_IsbL-0900_RLatLon0.09_PT031H.grib2 2026-05-03 15:02 661K
20260503T12Z_MSC_RDPS_WindV_IsbL-0925_RLatLon0.09_PT031H.grib2 2026-05-03 15:02 668K
20260503T12Z_MSC_RDPS_WindV_IsbL-0950_RLatLon0.09_PT031H.grib2 2026-05-03 15:02 665K
20260503T12Z_MSC_RDPS_WindV_IsbL-0970_RLatLon0.09_PT031H.grib2 2026-05-03 15:02 664K
20260503T12Z_MSC_RDPS_WindV_IsbL-0985_RLatLon0.09_PT031H.grib2 2026-05-03 15:02 802K
20260503T12Z_MSC_RDPS_WindV_IsbL-1000_RLatLon0.09_PT031H.grib2 2026-05-03 15:02 798K
20260503T12Z_MSC_RDPS_WindV_IsbL-1015_RLatLon0.09_PT031H.grib2 2026-05-03 15:02 792K